GW0552 Weather Reports


time (UTC)temp
C
wind
direction
speed
KPH
gust
KPH
rain 1hr
cm
rain 24hr
cm
rain mn
cm
humidity
%
barometer
mb
20260508205320 21 121 8.0 11.3 0.00 0.00 0.00 35 1007.2
20260508204816 21 134 4.8 4.8 0.00 0.00 0.00 37 1007.7
20260508204314 21 125 16.1 22.5 0.00 0.00 0.00 35 1007.4
20260508203810 21 95 12.9 16.1 0.00 0.00 0.00 37 1007.9
20260508203306 21 128 6.4 8.0 0.00 0.00 0.00 42 1007.8
20260508202801 21 155 14.5 16.1 0.00 0.00 0.00 41 1007.6
20260508202259 21 121 9.7 12.9 0.00 0.00 0.00 40 1007.5
20260508201756 21 125 4.8 8.0 0.00 0.00 0.00 39 1007.7
20260508201253 21 139 6.4 9.7 0.00 0.00 0.00 38 1008.0
20260508200749 21 170 4.8 4.8 0.00 0.00 0.00 39 1007.7
20260508200246 21 123 11.3 16.1 0.00 0.00 0.00 42 1007.7
20260508195742 21 128 8.0 9.7 0.00 0.00 0.00 43 1007.6
20260508195239 21 134 4.8 4.8 0.00 0.00 0.00 42 1007.8
20260508194735 21 126 12.9 14.5 0.00 0.00 0.00 39 1008.3
20260508194232 21 133 8.0 9.7 0.00 0.00 0.00 40 1008.2
20260508193730 21 125 12.9 20.9 0.00 0.00 0.00 39 1008.3
20260508193226 21 126 9.7 11.3 0.00 0.00 0.00 43 1008.6
20260508192722 21 114 3.2 3.2 0.00 0.00 0.00 40 1008.9
20260508192220 21 135 8.0 11.3 0.00 0.00 0.00 43 1008.7
20260508191717 21 128 4.8 8.0 0.00 0.00 0.00 40 1008.7
20260508191214 21 241 6.4 9.7 0.00 0.00 0.00 44 1009.0
20260508190711 21 112 1.6 1.6 0.00 0.00 0.00 43 1009.1
20260508190207 21 126 6.4 8.0 0.00 0.00 0.00 40 1009.1
20260508185704 21 142 8.0 11.3 0.00 0.00 0.00 42 1009.3
20260508185201 21 108 6.4 8.0 0.00 0.00 0.00 41 1009.4
20260508184658 21 139 3.2 4.8 0.00 0.00 0.00 46 1009.4
20260508184155 21 116 1.6 1.6 0.00 0.00 0.00 41 1009.5
20260508183652 21 104 8.0 9.7 0.00 0.00 0.00 41 1009.8
20260508183148 20 121 8.0 11.3 0.00 0.00 0.00 40 1009.5
20260508182644 20 108 12.9 16.1 0.00 0.00 0.00 40 1009.9
20260508182141 21 71 4.8 8.0 0.00 0.00 0.00 41 1009.8
20260508181636 20 158 1.6 3.2 0.00 0.00 0.00 41 1010.0
20260508181134 20 110 8.0 11.3 0.00 0.00 0.00 40 1010.1
20260508180631 20 152 4.8 4.8 0.00 0.00 0.00 44 1010.2
20260508180127 20 135 9.7 12.9 0.00 0.00 0.00 45 1010.1
20260508175624 20 128 1.6 3.2 0.00 0.00 0.00 47 1010.5
20260508175121 20 128 3.2 4.8 0.00 0.00 0.00 40 1010.3
20260508174618 20 130 12.9 14.5 0.00 0.00 0.00 45 1010.6
20260508174115 21 207 6.4 8.0 0.00 0.00 0.00 49 1010.5
20260508173612 20 141 6.4 8.0 0.00 0.00 0.00 43 1010.7
20260508173108 21 145 3.2 3.2 0.00 0.00 0.00 47 1010.6
20260508172606 20 277 9.7 12.9 0.00 0.00 0.00 48 1010.8
20260508172102 20 244 4.8 4.8 0.00 0.00 0.00 42 1010.8
20260508171558 20 120 9.7 12.9 0.00 0.00 0.00 42 1011.2
20260508171055 20 114 4.8 4.8 0.00 0.00 0.00 44 1010.9
20260508170552 20 122 11.3 16.1 0.00 0.00 0.00 46 1011.2
20260508170049 20 159 3.2 3.2 0.00 0.00 0.00 45 1011.1
20260508165547 20 125 3.2 3.2 0.00 0.00 0.00 40 1011.4
20260508165043 19 189 9.7 12.9 0.00 0.00 0.00 48 1011.4
20260508164540 19 117 4.8 9.7 0.00 0.00 0.00 42 1011.6
20260508164037 19 91 4.8 8.0 0.00 0.00 0.00 41 1011.6
20260508163534 18 164 4.8 8.0 0.00 0.00 0.00 47 1011.7
20260508163031 19 114 14.5 17.7 0.00 0.00 0.00 42 1011.8
20260508162528 18 224 6.4 8.0 0.00 0.00 0.00 42 1011.7
20260508162025 18 177 6.4 9.7 0.00 0.00 0.00 48 1012.0
20260508161522 18 134 0.0 0.0 0.00 0.00 0.00 48 1012.0
20260508161019 18 145 6.4 8.0 0.00 0.00 0.00 47 1012.2
20260508160517 18 127 16.1 20.9 0.00 0.00 0.00 45 1012.2
20260508160014 18 118 0.0 0.0 0.00 0.00 0.00 47 1012.4
20260508155511 18 128 1.6 1.6 0.00 0.00 0.00 47 1012.4
20260508155008 18 126 6.4 9.7 0.00 0.00 0.00 46 1012.4
20260508154505 18 110 9.7 11.3 0.00 0.00 0.00 50 1012.6
20260508154002 18 124 1.6 4.8 0.00 0.00 0.00 46 1012.3
20260508153458 18 159 3.2 3.2 0.00 0.00 0.00 48 1012.6
20260508152955 17 357 4.8 11.3 0.00 0.00 0.00 47 1012.4
20260508152452 17 122 6.4 8.0 0.00 0.00 0.00 46 1012.4
20260508151948 17 304 6.4 9.7 0.00 0.00 0.00 45 1012.3
20260508151444 17 338 8.0 11.3 0.00 0.00 0.00 46 1012.5
20260508150941 17 123 4.8 4.8 0.00 0.00 0.00 45 1012.3
20260508150438 17 113 8.0 9.7 0.00 0.00 0.00 45 1012.5
20260508145933 17 130 8.0 9.7 0.00 0.00 0.00 48 1012.7
20260508145431 16 106 3.2 3.2 0.00 0.00 0.00 51 1012.6
20260508144927 16 146 0.0 1.6 0.00 0.00 0.00 51 1012.5
20260508144425 16 124 4.8 4.8 0.00 0.00 0.00 49 1012.7
20260508143922 16 141 8.0 9.7 0.00 0.00 0.00 50 1012.3
20260508143420 16 136 0.0 0.0 0.00 0.00 0.00 54 1012.8
20260508142916 16 124 3.2 3.2 0.00 0.00 0.00 53 1012.4
20260508142413 15 130 8.0 9.7 0.00 0.00 0.00 57 1012.4
20260508141909 15 148 1.6 3.2 0.00 0.00 0.00 59 1012.5
20260508141406 15 109 0.0 1.6 0.00 0.00 0.00 58 1012.6
20260508140904 14 114 8.0 9.7 0.00 0.00 0.00 58 1012.7
20260508140401 14 122 6.4 11.3 0.00 0.00 0.00 59 1012.6
20260508135856 13 71 9.7 11.3 0.00 0.00 0.00 59 1012.6
20260508135353 13 121 8.0 9.7 0.00 0.00 0.00 61 1012.6
20260508134849 13 120 11.3 12.9 0.00 0.00 0.00 60 1012.7
20260508134346 13 103 8.0 12.9 0.00 0.00 0.00 64 1012.6
20260508133843 12 135 1.6 1.6 0.00 0.00 0.00 65 1012.6
20260508133341 12 133 4.8 4.8 0.00 0.00 0.00 69 1012.7
20260508132837 12 109 3.2 3.2 0.00 0.00 0.00 75 1012.7
20260508132335 11 131 1.6 1.6 0.00 0.00 0.00 76 1012.9
20260508131832 11 120 0.0 0.0 0.00 0.00 0.00 83 1012.7
20260508131327 11 109 3.2 3.2 0.00 0.00 0.00 81 1012.9
20260508130824 10 117 0.0 0.0 0.00 0.00 0.00 86 1012.9
20260508130321 9 119 1.6 3.2 0.00 0.00 0.00 85 1012.9
20260508125817 8 121 3.2 3.2 0.00 0.00 0.00 88 1012.8
20260508125314 7 126 0.0 0.0 0.00 0.00 0.00 98 1012.7
20260508124812 6 125 0.0 1.6 0.00 0.00 0.00 99 1012.7
20260508124308 5 125 0.0 0.0 0.00 0.00 0.00 99 1012.8
20260508123807 5 127 0.0 0.0 0.00 0.00 0.00 99 1012.8
20260508123305 5 123 0.0 0.0 0.00 0.00 0.00 99 1013.0
20260508122801 4 126 0.0 0.0 0.00 0.00 0.00 99 1012.9
20260508122258 3 126 0.0 0.0 0.00 0.00 0.00 99 1012.7
20260508121755 3 126 0.0 0.0 0.00 0.00 0.00 99 1012.8
20260508121253 3 126 0.0 0.0 0.00 0.00 0.00 99 1012.9
20260508120750 2 126 0.0 0.0 0.00 0.00 0.00 99 1012.8
20260508120248 2 129 0.0 0.0 0.00 0.00 0.00 99 1012.7
20260508115746 2 129 0.0 0.0 0.00 0.00 0.00 99 1012.6
20260508115243 2 129 0.0 0.0 0.00 0.00 0.00 99 1012.8
20260508114739 1 130 0.0 0.0 0.00 0.00 0.00 99 1012.8
20260508114236 1 129 0.0 0.0 0.00 0.00 0.00 99 1012.9
20260508113732 1 129 0.0 0.0 0.00 0.00 0.00 99 1012.8
20260508113231 1 129 0.0 0.0 0.00 0.00 0.00 99 1012.8
20260508112721 1 129 0.0 0.0 0.00 0.00 0.00 99 1012.6
20260508112218 1 129 0.0 0.0 0.00 0.00 0.00 99 1012.8
20260508111715 1 129 0.0 0.0 0.00 0.00 0.00 99 1012.6
20260508111213 1 129 0.0 0.0 0.00 0.00 0.00 99 1012.7
20260508110709 0 129 0.0 0.0 0.00 0.00 0.00 99 1012.6
20260508110206 0 129 0.0 0.0 0.00 0.00 0.00 99 1012.4
20260508105700 0 128 0.0 0.0 0.00 0.00 0.00 99 1012.6
20260508105158 0 128 0.0 0.0 0.00 0.00 0.00 99 1012.4
20260508104655 0 128 0.0 0.0 0.00 0.00 0.00 99 1012.2
20260508104152 0 129 0.0 0.0 0.00 0.00 0.00 99 1012.4
20260508103649 0 128 0.0 0.0 0.00 0.00 0.00 99 1012.4
20260508103146 0 129 0.0 0.0 0.00 0.00 0.00 99 1012.5
20260508102643 0 129 0.0 0.0 0.00 0.00 0.00 99 1012.2
20260508102141 1 129 0.0 0.0 0.00 0.00 0.00 99 1012.2
20260508101638 0 128 0.0 0.0 0.00 0.00 0.00 99 1012.1
20260508101136 1 132 0.0 0.0 0.00 0.00 0.00 99 1012.0
20260508100633 1 132 0.0 0.0 0.00 0.00 0.00 99 1011.8
20260508100131 1 132 0.0 0.0 0.00 0.00 0.00 99 1012.0
20260508095627 1 132 0.0 0.0 0.00 0.00 0.00 99 1012.0
20260508095125 1 132 0.0 0.0 0.00 0.00 0.00 99 1011.8
20260508094621 1 132 0.0 0.0 0.00 0.00 0.00 99 1011.9
20260508094118 1 132 0.0 0.0 0.00 0.00 0.00 99 1012.0
20260508093615 1 132 0.0 0.0 0.00 0.00 0.00 99 1012.0
20260508093113 1 131 0.0 0.0 0.00 0.00 0.00 99 1011.9
20260508092610 1 131 0.0 0.0 0.00 0.00 0.00 99 1011.9
20260508092109 1 132 0.0 0.0 0.00 0.00 0.00 99 1011.9
20260508091605 1 131 0.0 0.0 0.00 0.00 0.00 99 1011.9
20260508091102 1 131 0.0 0.0 0.00 0.00 0.00 99 1011.9
20260508090600 1 131 0.0 0.0 0.00 0.00 0.00 99 1011.6
20260508090056 1 132 0.0 0.0 0.00 0.00 0.00 99 1011.8
20260508085553 1 132 0.0 0.0 0.00 0.00 0.00 99 1011.7
20260508085051 1 132 0.0 0.0 0.00 0.00 0.00 99 1011.9
20260508084547 1 131 0.0 0.0 0.00 0.00 0.00 99 1011.9
20260508084044 1 132 0.0 0.0 0.00 0.00 0.00 99 1011.8
20260508083541 1 132 0.0 0.0 0.00 0.00 0.00 99 1011.7
20260508083038 1 132 0.0 0.0 0.00 0.00 0.00 99 1011.8
20260508082534 1 132 0.0 0.0 0.00 0.00 0.00 99 1011.8
20260508082032 1 132 0.0 0.0 0.00 0.00 0.00 99 1011.7
20260508081529 1 131 0.0 0.0 0.00 0.00 0.00 99 1011.8
20260508081025 1 131 0.0 0.0 0.00 0.00 0.00 99 1011.7
20260508080523 1 131 0.0 0.0 0.00 0.00 0.00 99 1011.7
20260508080020 1 131 0.0 0.0 0.00 0.00 0.00 99 1011.8
20260508075516 1 132 0.0 0.0 0.00 0.00 0.00 99 1011.7
20260508075014 1 131 0.0 0.0 0.00 0.00 0.00 99 1011.7
20260508074512 1 132 0.0 0.0 0.00 0.00 0.00 99 1011.8
20260508074008 2 129 0.0 0.0 0.00 0.00 0.00 99 1011.7
20260508073506 1 128 0.0 0.0 0.00 0.00 0.00 99 1011.7
20260508073003 1 128 0.0 0.0 0.00 0.00 0.00 99 1011.7
20260508072459 1 128 0.0 0.0 0.00 0.00 0.00 99 1011.6
20260508071956 2 128 0.0 0.0 0.00 0.00 0.00 99 1011.7
20260508071454 2 128 0.0 0.0 0.00 0.00 0.00 99 1011.7
20260508070951 2 128 0.0 0.0 0.00 0.00 0.00 99 1011.6
20260508070449 2 133 0.0 0.0 0.00 0.00 0.00 99 1011.5
20260508065947 2 136 3.2 3.2 0.00 0.00 0.00 99 1011.6
20260508065445 2 141 1.6 3.2 0.00 0.00 0.00 99 1011.4
20260508064943 2 129 0.0 1.6 0.00 0.00 0.00 99 1011.5
20260508064440 2 131 0.0 0.0 0.00 0.00 0.00 99 1011.6
20260508063937 2 132 0.0 0.0 0.00 0.00 0.00 99 1011.7
20260508063435 2 133 3.2 3.2 0.00 0.00 0.00 99 1011.6
20260508062932 2 131 0.0 0.0 0.00 0.00 0.00 99 1011.8
20260508062430 2 131 0.0 0.0 0.00 0.00 0.00 99 1011.9
20260508061927 2 131 0.0 0.0 0.00 0.00 0.00 99 1011.7
20260508061424 2 131 1.6 1.6 0.00 0.00 0.00 99 1011.7
20260508060920 2 161 3.2 3.2 0.00 0.00 0.00 99 1012.0
20260508060418 2 142 3.2 3.2 0.00 0.00 0.00 99 1011.6
20260508055913 2 135 0.0 0.0 0.00 0.00 0.00 98 1011.8
20260508055410 2 132 0.0 0.0 0.00 0.00 0.00 98 1011.8
20260508054907 2 135 0.0 0.0 0.00 0.00 0.00 98 1012.0
20260508054404 3 133 0.0 0.0 0.00 0.00 0.00 98 1011.9
20260508053901 2 132 0.0 0.0 0.00 0.00 0.00 98 1011.9
20260508053358 3 134 0.0 0.0 0.00 0.00 0.00 97 1012.0
20260508052856 3 133 0.0 0.0 0.00 0.00 0.00 97 1011.6
20260508052353 3 132 0.0 0.0 0.00 0.00 0.00 97 1011.7
20260508051849 3 132 0.0 0.0 0.00 0.00 0.00 97 1011.7
20260508051345 3 131 0.0 0.0 0.00 0.00 0.00 97 1011.7
20260508050841 3 131 0.0 0.0 0.00 0.00 0.00 97 1011.7
20260508050338 3 132 0.0 0.0 0.00 0.00 0.00 98 1011.7
20260508045834 3 133 0.0 1.6 0.00 0.00 0.00 98 1011.7
20260508045332 3 136 1.6 1.6 0.00 0.00 0.00 98 1011.9
20260508044829 3 135 1.6 3.2 0.00 0.00 0.00 97 1012.0
20260508044325 3 133 1.6 1.6 0.00 0.00 0.00 97 1011.8
20260508043822 3 132 0.0 0.0 0.00 0.00 0.00 97 1011.9
20260508043319 3 134 1.6 1.6 0.00 0.00 0.00 97 1011.9
20260508042816 3 136 1.6 3.2 0.00 0.00 0.00 97 1011.9
20260508042314 3 135 0.0 0.0 0.00 0.00 0.00 96 1011.7
20260508041810 4 134 1.6 1.6 0.00 0.00 0.00 96 1011.8
20260508041306 4 138 3.2 3.2 0.00 0.00 0.00 96 1011.9
20260508040803 4 136 1.6 3.2 0.00 0.00 0.00 96 1011.8
20260508040301 4 136 1.6 3.2 0.00 0.00 0.00 96 1011.6
20260508035758 4 144 4.8 4.8 0.00 0.00 0.00 96 1011.8
20260508035255 4 136 3.2 3.2 0.00 0.00 0.00 95 1011.6
20260508034751 4 136 3.2 3.2 0.00 0.00 0.00 95 1012.0
20260508034249 5 135 1.6 3.2 0.00 0.00 0.00 95 1011.8
20260508033746 5 144 3.2 3.2 0.00 0.00 0.00 94 1011.9
20260508033244 5 133 3.2 3.2 0.00 0.00 0.00 94 1011.9
20260508032741 5 138 3.2 3.2 0.00 0.00 0.00 94 1011.8
20260508032238 5 132 1.6 3.2 0.00 0.00 0.00 93 1011.7
20260508031735 5 131 1.6 1.6 0.00 0.00 0.00 93 1011.8
20260508031231 5 131 1.6 1.6 0.00 0.00 0.00 92 1011.8
20260508030728 5 132 1.6 1.6 0.00 0.00 0.00 92 1011.9
20260508030225 5 134 3.2 3.2 0.00 0.00 0.00 91 1011.8
20260508025722 5 131 1.6 1.6 0.00 0.00 0.00 91 1011.8
20260508025219 5 132 1.6 1.6 0.00 0.00 0.00 90 1011.7
20260508024714 5 134 1.6 1.6 0.00 0.00 0.00 90 1011.7
20260508024212 6 132 1.6 1.6 0.00 0.00 0.00 90 1011.6
20260508023708 6 132 1.6 1.6 0.00 0.00 0.00 89 1011.6
20260508023206 6 133 1.6 1.6 0.00 0.00 0.00 87 1011.6
20260508022701 6 132 1.6 1.6 0.00 0.00 0.00 86 1011.3
20260508022159 6 128 1.6 1.6 0.00 0.00 0.00 86 1011.5
20260508021655 6 126 1.6 1.6 0.00 0.00 0.00 84 1011.3
20260508021150 6 126 0.0 0.0 0.00 0.00 0.00 83 1011.2
20260508020648 7 126 0.0 0.0 0.00 0.00 0.00 82 1011.5
20260508020146 7 126 0.0 0.0 0.00 0.00 0.00 80 1011.1
20260508015643 7 126 0.0 0.0 0.00 0.00 0.00 80 1011.1
20260508015140 7 126 0.0 0.0 0.00 0.00 0.00 81 1011.0
20260508014636 7 126 0.0 0.0 0.00 0.00 0.00 81 1010.9
20260508014132 7 128 0.0 0.0 0.00 0.00 0.00 80 1010.9
20260508013629 7 132 0.0 0.0 0.00 0.00 0.00 80 1010.9
20260508013126 8 130 1.6 1.6 0.00 0.00 0.00 79 1010.8
20260508012623 8 137 0.0 1.6 0.00 0.00 0.00 76 1010.6
20260508012120 8 130 0.0 0.0 0.00 0.00 0.00 75 1010.6
20260508011619 8 131 0.0 0.0 0.00 0.00 0.00 72 1010.4
20260508011115 9 130 0.0 0.0 0.00 0.00 0.00 70 1010.4
20260508010612 9 130 0.0 0.0 0.00 0.00 0.00 69 1010.3
20260508010110 10 130 0.0 0.0 0.00 0.00 0.00 67 1010.2
20260508005606 10 130 0.0 0.0 0.00 0.00 0.00 66 1010.1
20260508005103 10 130 0.0 0.0 0.00 0.00 0.00 64 1010.2
20260508004559 10 130 0.0 0.0 0.00 0.00 0.00 64 1010.2
20260508004056 11 130 0.0 0.0 0.00 0.00 0.00 63 1010.3
20260508003552 11 128 0.0 0.0 0.00 0.00 0.00 60 1010.0
20260508003050 11 127 0.0 0.0 0.00 0.00 0.00 58 1009.9
20260508002546 12 128 1.6 1.6 0.00 0.00 0.00 55 1009.9
20260508002044 12 132 0.0 0.0 0.00 0.00 0.00 54 1010.0
20260508001539 13 132 0.0 0.0 0.00 0.00 0.00 50 1009.8
20260508001035 14 127 0.0 0.0 0.00 0.00 0.00 45 1009.9
20260508000531 15 111 1.6 1.6 0.00 0.00 0.00 39 1009.5
20260508000029 15 85 4.8 4.8 0.00 0.00 0.00 38 1009.4
20260507235525 15 154 1.6 1.6 0.00 0.00 0.00 38 1009.4
20260507235023 15 128 1.6 1.6 0.00 0.00 0.00 37 1009.4
20260507234519 15 116 1.6 1.6 0.00 0.00 0.00 38 1009.3
20260507234016 15 144 3.2 3.2 0.00 0.00 0.00 38 1009.4
20260507233512 16 67 4.8 8.0 0.00 0.00 0.00 37 1009.2
20260507233011 16 120 3.2 3.2 0.00 0.00 0.00 36 1009.3
20260507232507 16 133 3.2 4.8 0.00 0.00 0.00 36 1009.2
20260507232005 16 136 3.2 4.8 0.00 0.00 0.00 35 1009.0
20260507231501 16 7 4.8 9.7 0.00 0.00 0.00 35 1008.9
20260507230958 16 52 4.8 8.0 0.00 0.00 0.00 36 1009.3
20260507230455 16 72 4.8 4.8 0.00 0.00 0.00 36 1009.1
20260507225950 16 330 8.0 11.3 0.00 0.00 0.00 37 1009.3
20260507225446 16 146 3.2 3.2 0.00 0.00 0.00 36 1009.1
20260507224943 16 20 4.8 4.8 0.00 0.00 0.00 34 1009.0
20260507224439 16 331 12.9 16.1 0.00 0.00 0.00 34 1009.0
20260507223936 17 150 4.8 4.8 0.00 0.00 0.00 37 1009.1
20260507223432 17 117 4.8 8.0 0.00 0.00 0.00 39 1009.0
20260507222929 17 331 4.8 9.7 0.00 0.00 0.00 37 1009.2
20260507222426 17 155 4.8 4.8 0.00 0.00 0.00 38 1008.9
20260507221922 17 92 1.6 3.2 0.00 0.00 0.00 38 1009.0
20260507221419 17 131 4.8 4.8 0.00 0.00 0.00 38 1009.0
20260507220915 17 355 9.7 11.3 0.00 0.00 0.00 38 1008.9
20260507220413 17 300 4.8 8.0 0.00 0.00 0.00 40 1008.8
20260507215909 17 315 6.4 9.7 0.00 0.00 0.00 40 1008.7
20260507215406 17 64 6.4 8.0 0.00 0.00 0.00 39 1008.5
20260507214903 17 176 8.0 12.9 0.00 0.00 0.00 39 1008.7
20260507214401 17 108 3.2 4.8 0.00 0.00 0.00 39 1008.8
20260507213856 18 7 8.0 9.7 0.00 0.00 0.00 39 1008.7
20260507213353 17 215 11.3 17.7 0.00 0.00 0.00 41 1008.7
20260507212850 18 64 8.0 11.3 0.00 0.00 0.00 40 1008.6
20260507212346 17 129 0.0 0.0 0.00 0.00 0.00 42 1008.4
20260507211842 18 106 3.2 4.8 0.00 0.00 0.00 40 1008.4
20260507211339 18 140 1.6 3.2 0.00 0.00 0.00 40 1008.4
20260507210836 18 60 3.2 4.8 0.00 0.00 0.00 40 1008.3
20260507210333 18 149 4.8 4.8 0.00 0.00 0.00 43 1008.4
20260507205829 17 108 6.4 11.3 0.00 0.00 0.00 40 1008.3